Date,TemperatureHighF,TemperatureAvgF,TemperatureLowF,DewpointHighF,DewpointAvgF,DewpointLowF,HumidityHigh,HumidityAvg,HumidityLow,PressureMaxIn,PressureMinIn,WindSpeedMaxMPH,WindSpeedAvgMPH,GustSpeedMaxMPH,PrecipitationSumIn
2014-1-1,42,35,30,28,21,15,81,57,42,30.17,29.91,1,0,4,0.00
2014-1-2,44,37,20,43,32,7,98,83,56,29.92,29.44,3,1,8,0.16
2014-1-3,28,20,13,7,0,-5,63,42,24,30.24,29.63,4,1,11,0.00
2014-1-4,36,27,16,35,16,-3,96,65,35,30.25,30.02,2,0,4,0.00
2014-1-5,45,41,36,44,40,35,100,99,96,30.02,29.49,3,0,7,0.21
2014-1-6,42,23,2,42,13,-13,100,67,26,30.02,29.44,6,2,14,0.15
2014-1-7,23,9,-3,1,-6,-12,67,51,31,30.33,30.01,2,0,4,0.00
2014-1-8,46,28,15,13,3,-8,48,35,23,30.37,30.21,2,0,5,0.00
2014-1-9,43,36,29,33,10,-24,93,40,7,30.30,30.19,2,0,4,0.04
2014-1-10,49,43,35,49,42,33,100,98,93,30.21,29.79,2,0,3,1.05
2014-1-11,53,47,38,53,46,30,100,95,62,29.81,29.38,4,1,11,1.73
2014-1-12,49,40,33,30,26,21,69,58,39,29.98,29.58,3,1,11,0.00
2014-1-13,48,43,39,39,30,26,96,63,46,29.92,29.67,3,1,10,0.13
2014-1-14,51,43,39,42,32,16,98,69,28,29.76,29.55,3,1,7,0.16
2014-1-15,40,35,25,29,23,16,82,61,46,29.75,29.64,3,0,10,0.00
2014-1-16,37,26,17,17,11,6,80,54,30,29.85,29.71,2,0,6,0.00
2014-1-17,42,32,24,20,12,6,70,44,24,29.78,29.60,5,1,15,0.00
2014-1-18,35,24,15,10,4,-5,63,44,18,29.90,29.69,5,1,13,0.00
2014-1-19,47,36,27,19,11,3,58,36,23,29.81,29.70,5,1,10,0.00
2014-1-20,58,46,38,18,8,-2,30,21,16,29.72,29.60,5,2,11,0.00
2014-1-21,44,38,17,24,18,5,74,46,33,29.63,29.36,6,2,11,0.00
2014-1-22,31,20,9,7,-4,-14,64,37,18,29.87,29.61,4,1,9,0.00
2014-1-23,31,20,10,9,-1,-8,60,43,20,30.20,29.86,4,1,7,0.00
2014-1-24,27,13,0,-6,-11,-19,55,35,15,30.42,30.06,2,1,4,0.00
2014-1-25,32,24,16,21,1,-15,72,40,22,30.05,29.54,4,1,10,0.00
2014-1-26,47,36,28,24,14,-2,56,40,22,29.73,29.62,6,2,13,0.00
2014-1-27,52,42,26,30,24,9,64,49,33,29.80,29.60,4,2,12,0.00
2014-1-28,23,20,16,17,6,-3,83,57,38,30.03,29.79,2,1,3,0.00
2014-1-29,28,17,8,14,1,-10,83,53,20,30.15,29.93,2,0,5,0.13
2014-1-30,34,22,13,10,4,-5,82,48,27,30.18,30.00,2,0,5,0.02
2014-1-31,54,39,22,12,1,-16,42,21,12,30.01,29.88,2,0,9,0.04
2014-2-1,53,44,38,33,12,-5,68,31,13,29.97,29.85,2,0,4,0.00
2014-2-2,63,51,39,52,40,29,97,68,51,29.88,29.66,3,1,6,0.07
2014-2-3,60,51,37,55,46,34,100,85,39,29.93,29.53,4,2,9,0.58
2014-2-4,39,37,35,38,35,32,97,93,89,30.09,29.89,2,0,3,0.26
2014-2-5,57,45,33,49,38,25,100,81,37,29.82,29.60,5,2,14,0.38
2014-2-6,42,29,22,28,20,16,91,70,42,30.10,29.84,2,0,3,0.00
2014-2-7,46,34,26,29,26,24,94,75,45,30.11,29.98,2,0,5,0.02
2014-2-8,50,39,32,31,27,22,78,61,43,30.01,29.84,3,0,4,0.00
2014-2-9,53,40,32,33,30,28,90,68,44,29.91,29.73,4,1,6,0.00
2014-2-10,36,33,29,32,29,27,93,87,75,29.98,29.76,3,1,4,0.09
2014-2-11,32,29,26,28,26,23,96,91,82,30.10,29.96,2,0,5,0.05
2014-2-12,26,22,19,23,18,12,92,84,70,30.12,29.63,4,2,9,0.00
2014-2-13,39,31,25,29,24,16,94,78,53,29.63,29.40,5,1,9,0.45
2014-2-14,52,39,31,32,22,15,83,51,30,29.64,29.42,5,2,10,0.22
2014-2-15,46,35,27,33,17,0,94,54,16,29.87,29.31,3,1,7,0.04
2014-2-16,40,33,32,26,20,14,76,58,47,29.90,29.76,4,2,9,0.00
2014-2-17,46,37,31,32,25,21,87,63,43,30.06,29.89,2,0,5,0.01
2014-2-18,59,46,34,39,27,13,92,53,18,30.00,29.78,3,1,5,0.00
2014-2-19,66,55,45,56,47,37,100,78,40,29.83,29.68,5,1,10,0.48
2014-2-20,63,56,52,55,50,45,96,82,63,29.86,29.62,3,1,6,0.00
2014-2-21,58,51,38,55,31,3,98,57,12,29.81,29.50,5,2,13,1.12
2014-2-22,58,44,35,19,15,10,51,32,15,29.98,29.80,3,1,10,0.00
2014-2-23,66,50,41,26,21,16,41,32,20,29.86,29.67,2,1,8,0.00
2014-2-24,60,46,36,31,23,12,78,42,19,29.91,29.65,3,1,6,0.00
2014-2-25,60,46,35,29,19,12,51,35,24,29.83,29.64,5,1,9,0.00
2014-2-26,48,34,24,20,16,13,65,47,29,29.70,29.51,5,1,13,0.00
2014-2-27,51,31,19,15,5,-5,73,40,11,29.77,29.59,5,1,7,0.00
2014-2-28,43,31,21,12,6,0,51,34,20,30.04,29.74,3,0,5,0.00
2014-3-1,53,41,30,30,23,10,61,49,33,30.09,29.95,3,0,9,0.00
2014-3-2,66,54,44,44,39,30,71,58,39,29.96,29.65,3,1,7,0.00
2014-3-3,53,44,30,51,39,27,96,84,58,29.89,29.48,5,2,14,0.11
2014-3-4,41,30,23,28,21,13,94,69,43,30.04,29.87,2,1,5,0.00
2014-3-5,54,39,29,27,23,17,77,54,32,29.98,29.83,2,0,5,0.00
2014-3-6,36,32,28,31,19,10,93,60,38,30.06,29.82,4,2,7,0.09
2014-3-7,47,37,32,38,34,30,95,88,70,29.83,29.71,4,1,10,0.67
2014-3-8,65,50,38,38,31,22,92,54,23,29.89,29.75,2,0,6,0.01
2014-3-9,67,51,42,36,29,18,65,44,16,29.86,29.75,3,1,5,0.00
2014-3-10,70,54,40,32,23,16,52,32,14,29.83,29.61,5,1,9,0.00
2014-3-11,74,59,44,41,30,21,51,34,17,29.63,29.44,3,1,10,0.00
2014-3-12,66,52,32,56,42,17,98,70,44,29.49,29.09,6,2,13,0.11
2014-3-13,44,33,23,17,3,-7,54,31,12,30.04,29.49,5,1,10,0.00
2014-3-14,55,42,29,18,7,-5,36,24,14,30.09,29.83,3,1,9,0.00
2014-3-15,66,53,44,32,27,16,53,38,19,29.85,29.73,4,1,8,0.00
2014-3-16,51,46,38,46,40,31,97,83,47,29.77,29.46,2,0,4,0.99
2014-3-17,38,35,31,38,34,30,96,96,96,29.68,29.48,2,1,4,0.26
2014-3-18,44,36,30,40,35,29,99,94,82,29.91,29.63,4,1,5,0.00
2014-3-19,47,42,38,42,39,37,98,92,73,29.92,29.77,3,0,7,0.04
2014-3-20,62,48,40,38,24,4,78,45,11,29.84,29.72,6,1,9,0.00
2014-3-21,61,47,36,21,17,11,46,31,16,29.95,29.82,3,0,7,0.00
2014-3-22,68,58,47,36,28,18,49,32,26,29.83,29.69,3,1,4,0.00
2014-3-23,54,47,36,48,36,20,96,67,48,29.91,29.65,4,1,11,0.22
2014-3-24,51,38,26,24,19,12,66,48,27,30.01,29.80,2,1,7,0.00
2014-3-25,40,34,24,32,22,7,92,64,40,29.86,29.61,7,1,12,0.09
2014-3-26,47,31,19,8,3,-5,50,32,15,30.09,29.83,3,1,8,0.00
2014-3-27,55,41,31,23,11,3,40,29,18,30.18,29.98,3,1,6,0.00
2014-3-28,51,48,46,51,46,24,100,92,42,30.00,29.84,2,1,11,0.21
2014-3-29,55,51,40,55,49,30,100,95,66,29.85,29.41,4,1,8,0.46
2014-3-30,54,43,35,30,19,7,69,41,19,29.86,29.51,5,2,12,0.00
2014-3-31,71,56,41,23,11,-6,34,18,8,29.92,29.82,3,1,7,0.00
2014-4-1,78,64,53,35,24,11,28,22,16,29.89,29.72,4,1,8,0.00
2014-4-2,79,66,56,36,25,14,31,21,12,29.85,29.75,3,1,7,0.00
2014-4-3,78,67,61,50,44,25,61,45,19,29.78,29.62,4,1,10,0.00
2014-4-4,72,61,54,55,47,39,85,62,35,29.64,29.50,5,1,10,0.00
2014-4-5,67,54,41,40,32,22,81,47,18,29.82,29.60,3,1,5,0.00
2014-4-6,57,47,41,39,31,24,87,53,41,29.90,29.77,3,1,6,0.03
2014-4-7,55,46,40,54,46,39,100,97,88,29.80,29.42,3,1,7,2.80
2014-4-8,54,48,42,53,37,29,100,69,45,29.55,29.39,4,1,12,0.00
2014-4-9,63,49,40,36,28,20,77,48,20,29.90,29.53,3,1,12,0.00
2014-4-10,68,54,41,32,27,23,53,38,24,30.04,29.89,3,1,8,0.00
2014-4-11,69,59,51,36,32,29,47,37,25,29.98,29.82,4,1,7,0.00
2014-4-12,75,62,51,44,38,33,61,41,23,29.95,29.83,4,1,10,0.00
2014-4-13,72,63,54,50,47,44,75,58,38,29.91,29.76,3,1,6,0.00
2014-4-14,62,57,55,58,54,49,98,89,66,29.76,29.53,3,1,7,0.53
2014-4-15,58,48,30,58,43,17,98,84,57,29.77,29.39,5,2,14,1.34
2014-4-16,54,38,27,21,15,0,64,41,13,30.17,29.78,5,1,9,0.01
2014-4-17,58,44,30,25,21,17,71,42,22,30.27,30.15,4,1,11,0.00
2014-4-18,52,44,41,42,31,22,93,61,45,30.18,29.95,3,1,7,0.76
2014-4-19,51,46,43,47,43,38,96,90,73,29.99,29.84,5,2,12,0.65
2014-4-20,66,52,43,40,32,20,86,51,18,30.05,29.92,4,1,12,0.00
2014-4-21,74,58,45,42,32,26,49,39,24,29.97,29.68,2,0,5,0.00
2014-4-22,65,59,54,55,46,35,90,63,42,29.68,29.50,3,0,6,0.08
2014-4-23,74,59,48,49,30,15,89,42,12,29.73,29.54,4,1,6,0.00
2014-4-24,69,58,45,35,27,19,46,31,23,29.87,29.69,3,1,4,0.00
2014-4-25,71,61,54,55,43,35,96,53,37,29.69,29.51,6,1,10,0.00
2014-4-26,77,62,48,40,35,26,67,40,17,29.79,29.64,3,1,6,0.00
2014-4-27,79,68,58,54,41,32,71,39,19,29.77,29.64,3,0,6,0.00
2014-4-28,75,66,60,62,55,49,92,71,41,29.69,29.55,2,0,10,0.02
2014-4-29,70,64,60,62,58,54,95,80,59,29.69,29.50,3,1,8,0.50
2014-4-30,66,60,58,59,57,52,99,90,61,29.69,29.58,4,1,7,0.16
2014-5-1,71,59,49,57,41,27,93,56,21,29.66,29.57,3,1,7,0.00
2014-5-2,69,54,45,37,33,27,64,47,26,29.73,29.59,2,0,9,0.00
2014-5-3,74,58,46,36,33,28,62,42,22,29.75,29.62,4,1,6,0.00
2014-5-4,81,66,53,40,36,33,51,34,19,29.80,29.67,5,1,7,0.00
2014-5-5,86,71,62,45,40,33,48,34,16,29.75,29.58,4,1,7,0.00
2014-5-6,86,71,60,47,44,31,56,40,18,29.70,29.57,2,0,6,0.00
2014-5-7,83,70,60,50,45,41,57,43,26,29.86,29.68,2,0,6,0.00
2014-5-8,83,70,61,53,48,42,60,46,31,29.95,29.81,3,1,6,0.00
2014-5-9,69,64,57,60,54,48,96,71,56,29.90,29.81,2,0,7,0.32
2014-5-10,69,61,57,62,58,53,97,89,68,29.86,29.77,2,0,6,0.04
2014-5-11,78,65,56,62,55,50,92,74,43,29.91,29.81,1,0,2,0.01
2014-5-12,81,69,60,62,59,54,96,73,46,29.95,29.85,1,0,3,0.01
2014-5-13,81,70,64,63,59,53,91,71,39,29.90,29.82,1,0,4,0.00
2014-5-14,76,68,62,61,57,54,96,69,49,29.88,29.69,2,0,6,0.52
2014-5-15,63,59,45,63,58,43,99,97,92,29.71,29.59,3,0,6,3.06
2014-5-16,59,48,40,42,36,30,92,66,39,29.87,29.66,4,1,8,0.00
2014-5-17,60,49,39,46,38,28,83,66,44,29.97,29.84,2,0,6,0.00
2014-5-18,51,47,45,48,45,41,96,92,83,30.02,29.92,1,0,3,0.19
2014-5-19,67,52,43,49,45,41,96,79,49,30.07,29.97,1,0,5,0.00
2014-5-20,74,60,50,59,52,46,90,75,52,30.04,29.86,1,0,7,0.00
2014-5-21,83,68,58,58,52,44,85,58,31,29.89,29.74,3,1,4,0.00
2014-5-22,85,71,62,60,54,48,69,56,35,29.80,29.65,2,0,6,0.00
2014-5-23,80,70,62,62,54,47,81,59,34,29.80,29.69,3,0,6,0.00
2014-5-24,75,65,57,60,54,43,84,69,52,29.87,29.74,1,0,7,0.00
2014-5-25,73,62,56,61,53,40,96,72,49,29.94,29.84,1,0,4,0.09
2014-5-26,78,66,56,64,58,53,95,77,47,29.96,29.84,2,0,7,0.00
2014-5-27,77,66,62,67,60,56,97,82,49,29.89,29.76,2,0,3,0.25
2014-5-28,81,66,59,68,61,52,97,86,44,29.82,29.74,2,0,5,0.21
2014-5-29,78,66,60,65,61,57,98,87,49,29.82,29.72,1,0,6,1.07
2014-5-30,77,64,60,66,62,59,99,92,57,29.84,29.78,0,0,4,0.34
2014-5-31,72,64,60,66,62,59,99,92,74,29.92,29.81,1,0,6,0.00
2014-6-1,67,62,57,60,58,55,96,88,67,30.04,29.92,1,0,5,0.04
2014-6-2,72,61,54,57,53,51,93,77,52,30.03,29.90,1,0,5,0.00
2014-6-3,76,65,57,65,58,52,90,78,58,29.90,29.74,1,0,3,0.00
2014-6-4,81,69,60,67,62,58,96,79,46,29.74,29.56,1,0,6,0.00
2014-6-5,82,71,64,63,60,56,96,71,46,29.60,29.48,3,1,7,0.14
2014-6-6,81,68,62,67,63,62,99,87,57,29.69,29.57,1,0,6,0.25
2014-6-7,75,66,60,69,63,59,98,92,72,29.74,29.62,0,0,4,0.28
2014-6-8,80,69,64,69,63,56,99,83,56,29.70,29.58,2,0,6,0.59
2014-6-9,78,68,58,66,60,57,95,77,54,29.68,29.58,1,0,5,0.00
2014-6-10,82,70,60,66,61,54,96,73,53,29.71,29.63,2,0,14,0.19
2014-6-11,76,65,60,65,62,58,99,88,55,29.70,29.57,1,0,7,0.26
2014-6-12,76,64,60,65,61,58,99,91,59,29.67,29.57,2,0,7,1.04
2014-6-13,77,64,58,66,60,57,99,91,60,29.68,29.57,2,0,4,0.39
2014-6-14,78,66,58,66,61,57,99,85,60,29.80,29.67,1,0,5,0.00
2014-6-15,81,72,64,67,63,60,93,73,54,29.91,29.79,1,0,9,0.00
2014-6-16,80,70,66,69,64,59,92,81,56,29.94,29.86,0,0,2,0.00
2014-6-17,84,73,66,69,64,53,93,76,38,29.95,29.83,0,0,4,0.00
2014-6-18,75,69,62,70,65,58,97,89,69,29.95,29.83,4,0,18,0.82
2014-6-19,83,68,61,69,63,59,99,87,55,29.93,29.81,2,0,5,0.93
2014-6-20,81,69,61,71,64,59,99,85,54,29.84,29.70,1,0,3,0.01
2014-6-21,83,75,65,66,61,56,92,64,43,29.70,29.58,1,0,5,0.00
2014-6-22,84,71,64,65,60,50,91,70,33,29.69,29.57,1,0,3,0.04
2014-6-23,74,66,65,68,64,60,98,92,76,29.81,29.66,1,0,3,0.12
2014-6-24,76,68,62,67,65,62,99,91,68,29.84,29.73,0,0,4,0.02
2014-6-25,79,70,64,66,63,60,98,81,54,29.77,29.69,2,0,5,0.01
2014-6-26,81,70,63,66,61,56,91,72,44,29.80,29.70,1,0,4,0.00
2014-6-27,79,71,67,66,62,58,88,74,54,29.83,29.70,1,0,3,0.00
2014-6-28,75,68,66,68,65,63,99,91,71,29.94,29.82,0,0,3,1.08
2014-6-29,79,68,62,70,66,61,100,93,69,29.98,29.85,1,0,6,0.65
2014-6-30,75,67,62,69,64,61,99,91,75,29.88,29.72,1,0,3,0.03
2014-7-1,84,73,65,71,67,64,99,84,56,29.75,29.63,1,0,4,0.00
2014-7-2,85,74,66,71,66,61,92,77,52,29.70,29.65,1,0,3,0.00
2014-7-3,78,70,65,73,64,54,98,84,65,29.72,29.62,1,0,3,0.76
2014-7-4,77,65,58,55,52,46,78,64,34,29.94,29.71,2,0,6,0.00
2014-7-5,77,65,56,57,50,45,76,60,45,30.05,29.93,1,0,5,0.00
2014-7-6,77,67,60,62,58,50,96,74,50,29.94,29.80,1,0,4,0.00
2014-7-7,81,71,64,67,63,59,96,78,52,29.82,29.69,1,0,5,0.00
2014-7-8,83,70,62,67,61,53,97,73,55,29.79,29.68,2,0,5,0.16
2014-7-9,76,69,63,68,64,62,98,85,63,29.80,29.68,1,0,7,0.47
2014-7-10,73,66,62,71,64,61,99,93,78,29.86,29.73,0,0,3,0.16
2014-7-11,78,69,63,69,65,62,99,88,65,29.93,29.84,1,0,4,0.00
2014-7-12,83,72,64,68,65,62,99,82,51,29.96,29.87,1,0,3,0.00
2014-7-13,83,73,66,69,65,63,93,79,58,29.89,29.77,1,0,4,0.00
2014-7-14,83,72,66,72,67,64,97,85,62,29.77,29.64,2,0,5,0.41
2014-7-15,78,70,64,70,65,60,95,85,68,29.65,29.51,1,0,5,0.07
2014-7-16,72,65,58,62,56,48,88,73,57,29.71,29.57,1,0,5,0.00
2014-7-17,75,65,58,59,53,48,80,67,51,29.84,29.70,1,0,4,0.00
2014-7-18,66,63,61,65,62,56,99,96,80,29.92,29.80,0,0,5,0.55
2014-7-19,62,60,59,62,60,58,99,99,98,29.89,29.82,1,0,10,1.75
2014-7-20,68,60,58,67,60,58,100,100,97,29.88,29.82,0,0,3,0.02
2014-7-21,69,66,64,68,65,64,99,98,92,29.87,29.76,0,0,1,0.32
2014-7-22,73,68,65,70,66,64,99,96,84,29.90,29.82,0,0,1,0.11
2014-7-23,74,68,64,71,67,64,100,97,85,29.87,29.70,0,0,0,0.45
2014-7-24,81,69,65,72,67,63,100,93,63,29.71,29.61,0,0,0,0.04
2014-7-25,77,69,62,68,64,61,98,85,65,29.80,29.69,1,0,4,0.00
2014-7-26,81,70,62,67,63,56,99,79,49,29.80,29.71,1,0,1,0.00
2014-7-27,85,74,67,72,65,58,87,76,56,29.73,29.59,1,0,7,0.00
2014-7-28,78,69,62,67,60,53,98,74,44,29.68,29.56,4,1,9,0.13
2014-7-29,77,64,57,60,53,50,84,69,48,29.78,29.63,1,0,3,0.00
2014-7-30,74,62,53,60,53,46,83,72,52,29.84,29.75,1,0,1,0.00
2014-7-31,66,62,59,61,57,52,96,84,71,29.88,29.80,0,0,4,0.18
2014-8-1,72,62,59,62,60,58,99,91,68,29.88,29.79,1,0,2,0.12
2014-8-2,73,64,60,65,62,59,99,92,68,29.86,29.80,0,0,2,0.15
2014-8-3,78,67,60,66,62,58,100,86,51,29.86,29.77,1,0,1,0.00
2014-8-4,74,65,60,66,62,58,99,90,66,29.84,29.79,0,0,1,0.93
2014-8-5,77,67,62,70,64,61,100,93,64,29.84,29.75,0,0,0,0.03
2014-8-6,78,69,60,67,61,55,92,78,58,29.81,29.70,1,0,2,0.00
2014-8-7,81,70,64,67,63,60,93,78,53,29.78,29.68,0,0,1,0.00
2014-8-8,68,66,64,67,64,61,99,93,78,29.86,29.73,0,0,1,0.80
2014-8-9,76,68,64,70,67,64,100,96,77,29.82,29.72,1,0,3,1.08
2014-8-10,69,65,63,68,65,63,100,99,94,29.82,29.72,0,0,1,0.42
2014-8-11,75,68,63,69,66,63,100,95,76,29.81,29.67,0,0,2,0.01
2014-8-12,76,70,66,74,68,65,100,94,71,29.68,29.52,1,0,2,0.57
2014-8-13,77,66,59,65,57,52,96,75,45,29.77,29.60,1,0,2,0.00
2014-8-14,74,64,56,64,58,53,94,83,60,29.83,29.73,0,0,3,0.00
2014-8-15,77,66,59,65,60,57,96,83,59,29.80,29.71,1,0,2,0.00
2014-8-16,76,68,60,67,62,57,95,82,58,29.80,29.71,0,0,1,0.00
2014-8-17,79,70,64,68,64,59,92,81,54,29.79,29.69,1,0,3,0.00
2014-8-18,75,69,66,68,65,62,98,87,69,29.69,29.56,1,0,4,0.15
2014-8-19,82,71,63,69,64,60,93,81,53,29.65,29.57,1,0,2,0.00
2014-8-20,82,69,64,75,66,60,98,91,66,29.85,29.63,1,0,5,0.28
2014-8-21,85,71,64,72,64,56,98,81,55,29.88,29.77,1,0,2,0.18
2014-8-22,87,74,67,73,67,61,98,79,52,29.83,29.71,0,0,1,0.00
2014-8-23,83,74,68,71,66,62,92,78,62,29.74,29.64,1,0,2,0.00
2014-8-24,75,70,64,67,65,62,95,86,73,29.82,29.64,1,0,5,0.00
2014-8-25,76,65,58,62,59,56,92,81,56,29.90,29.78,1,0,3,0.00
2014-8-26,81,65,55,64,58,54,98,81,43,29.92,29.80,1,0,1,0.00
2014-8-27,82,67,57,65,58,53,92,75,37,29.88,29.77,1,0,2,0.00
2014-8-28,85,71,62,68,61,56,90,72,45,29.81,29.72,0,0,1,0.00
2014-8-29,83,72,66,67,64,60,92,75,49,29.86,29.73,0,0,0,0.00
2014-8-30,82,71,64,69,66,63,98,85,60,29.93,29.84,1,0,5,0.00
2014-8-31,83,71,65,72,67,65,99,89,62,29.90,29.80,0,0,3,0.19
2014-9-1,82,72,66,71,66,64,96,83,63,29.87,29.79,0,0,1,0.00
2014-9-2,83,72,67,72,67,62,93,83,54,29.83,29.70,1,0,2,0.20
2014-9-3,82,71,65,69,65,62,99,84,55,29.85,29.70,0,0,4,0.73
2014-9-4,77,69,65,70,67,65,100,93,72,29.92,29.80,0,0,1,0.00
2014-9-5,81,71,66,70,67,65,100,89,61,29.95,29.80,1,0,4,0.00
2014-9-6,81,69,64,73,67,63,99,92,62,29.83,29.71,0,0,2,0.17
2014-9-7,81,69,62,68,65,62,99,86,56,29.80,29.70,1,0,2,0.14
2014-9-8,71,66,63,66,64,61,99,93,77,29.86,29.73,0,0,3,0.16
2014-9-9,75,65,61,66,63,60,97,91,73,29.88,29.80,1,0,4,0.00
2014-9-10,72,66,62,65,63,61,99,91,72,29.88,29.78,1,0,3,0.00
2014-9-11,79,70,65,73,67,64,99,93,70,29.80,29.71,1,0,2,0.71
2014-9-12,78,69,65,72,68,65,100,96,74,29.81,29.71,0,0,2,0.05
2014-9-13,78,68,62,71,67,61,100,95,73,29.88,29.74,0,0,1,0.09
2014-9-14,65,61,59,62,60,58,99,97,90,30.00,29.87,0,0,1,0.07
2014-9-15,73,64,58,66,62,58,100,95,73,29.98,29.84,1,0,2,0.38
2014-9-16,75,66,62,69,64,61,100,94,71,29.85,29.68,0,0,2,0.01
2014-9-17,72,64,60,64,61,60,99,92,71,29.72,29.63,1,0,3,0.00
2014-9-18,70,62,57,64,59,56,99,92,66,29.78,29.65,0,0,3,0.04
2014-9-19,68,62,56,63,60,55,99,95,75,29.96,29.76,1,0,2,0.28
2014-9-20,73,62,57,60,57,49,99,86,50,29.97,29.80,0,0,2,0.03
2014-9-21,75,65,57,63,59,56,96,83,58,29.81,29.62,2,0,5,0.01
2014-9-22,72,61,53,61,50,44,94,68,40,29.91,29.64,1,0,2,0.00
2014-9-23,65,55,50,53,49,46,94,81,62,30.05,29.88,1,0,2,0.00
2014-9-24,66,56,48,56,46,37,98,72,35,30.10,30.00,1,0,4,0.04
2014-9-25,68,60,56,60,58,56,99,92,74,30.00,29.90,1,0,2,0.04
2014-9-26,65,61,58,59,58,57,97,89,79,29.96,29.88,1,0,3,0.01
2014-9-27,72,62,58,59,56,53,94,82,56,29.97,29.88,1,0,3,0.00
2014-9-28,70,62,54,63,58,53,96,87,65,29.95,29.81,0,0,1,0.00
2014-9-29,64,60,56,62,59,54,100,97,91,29.81,29.71,0,0,0,0.24
2014-9-30,74,62,54,63,58,54,100,89,58,29.73,29.62,0,0,2,0.01
2014-10-1,73,64,57,62,58,52,96,82,59,29.79,29.66,0,0,1,0.00
2014-10-2,75,64,58,60,57,52,93,79,48,29.88,29.76,0,0,1,0.00
2014-10-3,64,62,57,64,61,55,100,95,79,29.77,29.55,1,0,5,0.56
2014-10-4,58,49,39,57,38,27,99,68,33,29.72,29.53,2,0,5,0.00
2014-10-5,60,45,34,40,33,26,81,65,32,29.82,29.69,1,0,3,0.00
2014-10-6,63,53,47,54,46,37,98,76,57,29.83,29.74,1,0,2,0.12
2014-10-7,64,57,52,58,54,47,99,90,77,29.88,29.75,1,0,3,0.21
2014-10-8,74,64,59,59,53,42,98,71,35,29.85,29.75,3,1,5,0.03
2014-10-9,75,62,57,61,52,42,99,72,42,29.92,29.82,1,0,2,0.26
2014-10-10,73,64,58,66,62,58,100,92,72,29.85,29.72,2,0,4,0.00
2014-10-11,73,65,59,66,61,58,98,88,73,29.79,29.68,1,0,4,0.47
2014-10-12,62,59,54,62,59,53,100,99,97,29.94,29.75,1,0,2,0.21
2014-10-13,64,59,53,64,59,53,100,100,99,29.97,29.81,3,0,4,0.77
2014-10-14,64,62,53,64,62,53,100,100,100,29.80,29.45,4,2,11,3.87
2014-10-15,57,50,46,52,48,45,100,93,68,29.63,29.58,1,0,1,0.05
2014-10-16,60,50,46,50,47,44,99,89,62,29.70,29.54,1,0,4,0.03
2014-10-17,68,53,42,53,46,41,99,80,43,29.75,29.60,1,0,2,0.01
2014-10-18,66,57,47,52,46,38,81,67,41,29.74,29.53,1,0,3,0.00
2014-10-19,67,51,42,47,40,32,84,69,27,29.92,29.70,2,0,4,0.00
2014-10-20,64,53,46,50,46,43,92,78,56,29.89,29.74,1,0,5,0.01
2014-10-21,66,53,46,48,42,35,92,68,43,29.76,29.63,1,0,4,0.00
2014-10-22,58,46,40,38,34,31,74,63,42,29.91,29.73,2,0,5,0.00
2014-10-23,65,49,38,37,32,23,81,56,21,29.92,29.77,2,0,5,0.00
2014-10-24,66,52,43,46,37,29,84,58,28,29.85,29.74,0,0,1,0.00
2014-10-25,71,54,44,46,36,25,69,52,23,29.85,29.72,1,0,2,0.00
2014-10-26,75,61,55,51,45,35,85,58,26,29.77,29.65,2,0,3,0.00
2014-10-27,74,62,55,48,42,36,64,49,34,29.88,29.73,1,0,2,0.00
2014-10-28,73,63,58,55,51,46,85,65,43,29.89,29.80,2,0,5,0.00
2014-10-29,65,58,50,56,51,46,86,77,67,29.79,29.67,1,0,11,0.01
2014-10-30,61,47,42,38,34,30,71,59,38,29.86,29.72,1,0,5,0.00
2014-10-31,54,45,37,39,35,26,87,69,52,29.73,29.54,2,0,4,0.00
2014-11-1,38,33,29,28,25,21,93,73,62,29.92,29.50,5,2,12,0.06
2014-11-2,48,36,27,21,14,3,68,44,23,30.20,29.90,4,1,9,0.00
2014-11-3,64,47,32,26,12,-6,42,26,8,30.25,30.09,2,0,4,0.00
2014-11-4,67,56,48,27,16,-1,38,23,8,30.10,29.97,2,0,5,0.00
2014-11-5,60,54,50,48,39,26,85,58,36,30.03,29.88,2,0,4,0.00
2014-11-6,64,54,40,56,42,23,99,68,28,29.87,29.54,6,2,10,0.04
2014-11-7,58,43,36,32,27,24,69,55,29,29.84,29.67,4,1,12,0.00
2014-11-8,54,42,34,33,30,25,78,63,42,29.87,29.71,2,0,5,0.00
2014-11-9,61,47,38,36,33,30,76,59,35,29.81,29.67,2,0,5,0.00
2014-11-10,61,50,45,38,36,34,72,60,41,29.86,29.75,2,0,4,0.00
2014-11-11,67,53,43,37,31,14,79,46,21,29.85,29.69,1,0,3,0.00
2014-11-12,69,56,42,50,45,34,92,68,45,29.78,29.67,2,0,4,0.00
2014-11-13,54,41,30,48,38,25,99,88,63,29.84,29.71,3,1,4,0.00
2014-11-14,41,28,20,25,15,10,84,61,35,30.11,29.78,3,1,5,0.00
2014-11-15,40,26,17,17,13,10,79,58,34,30.25,30.07,2,0,3,0.00
2014-11-16,50,39,30,41,26,13,96,61,37,30.11,29.75,2,0,6,0.12
2014-11-17,52,41,24,51,40,20,99,94,76,29.74,29.41,3,1,4,1.73
2014-11-18,29,20,13,21,6,-1,85,55,28,30.13,29.70,4,1,10,0.00
2014-11-19,37,25,13,15,7,2,69,48,27,30.21,30.00,2,0,5,0.00
2014-11-20,52,40,30,24,18,12,59,42,24,30.00,29.85,5,1,6,0.00
2014-11-21,55,41,32,22,17,13,57,38,22,30.26,29.96,3,0,6,0.00
2014-11-22,50,41,30,20,15,7,45,35,27,30.31,30.05,2,0,2,0.00
2014-11-23,52,46,41,52,41,14,100,87,31,30.05,29.46,4,1,7,3.32
2014-11-24,61,54,51,55,50,40,100,86,58,29.67,29.48,3,1,10,0.02
2014-11-25,54,47,41,40,33,24,86,60,33,29.88,29.65,1,0,4,0.04
2014-11-26,48,40,36,40,32,15,97,75,41,29.81,29.66,3,0,6,0.52
2014-11-27,40,34,27,29,22,16,80,63,43,30.08,29.71,3,1,13,0.00
2014-11-28,42,30,20,18,14,11,70,53,31,30.19,30.03,2,0,4,0.00
2014-11-29,50,41,31,26,20,13,53,44,31,30.07,29.96,3,1,7,0.00
2014-11-30,60,51,43,45,39,26,80,65,50,30.07,29.95,4,1,9,0.00
2014-12-1,64,52,47,48,43,36,88,73,51,30.15,30.02,2,0,6,0.00
2014-12-2,59,52,47,50,47,44,95,84,70,30.09,29.98,2,0,5,0.00
2014-12-3,64,54,47,52,47,40,99,80,53,30.03,29.94,4,1,3,0.00
2014-12-4,56,49,45,45,43,41,91,78,60,30.11,29.97,1,0,4,0.00
2014-12-5,51,47,44,51,46,40,99,96,79,30.19,30.07,1,0,3,0.10
2014-12-6,54,49,41,54,47,35,100,94,78,30.07,29.79,5,1,12,0.28
2014-12-7,50,41,35,35,22,8,80,48,27,30.17,29.93,5,2,9,0.00
2014-12-8,35,32,29,32,22,9,96,69,34,30.19,29.95,2,1,5,0.01
2014-12-9,39,34,31,36,29,23,98,82,60,29.95,29.79,4,1,7,0.01
2014-12-10,44,34,26,24,22,18,75,63,42,29.90,29.80,6,1,9,0.00
2014-12-11,46,32,24,18,12,-5,78,50,12,30.00,29.80,2,0,5,0.00
2014-12-12,52,38,26,15,9,-3,57,31,18,30.13,29.96,2,1,4,0.00
2014-12-13,60,45,30,14,8,-6,46,22,12,30.00,29.85,2,0,4,0.00
2014-12-14,65,48,36,22,15,8,42,28,13,29.88,29.75,1,0,3,0.00
2014-12-15,56,47,42,33,24,15,64,40,28,29.87,29.75,1,0,4,0.00
2014-12-16,55,46,38,46,39,31,98,79,51,29.83,29.60,3,1,5,0.28
2014-12-17,53,40,33,34,31,27,91,71,36,29.96,29.81,2,0,3,0.00
2014-12-18,50,39,30,30,25,19,85,59,37,29.99,29.83,2,0,3,0.00
2014-12-19,49,38,31,31,28,24,79,66,49,29.97,29.85,2,0,4,0.00
2014-12-20,41,38,36,40,35,28,97,89,64,30.00,29.90,1,0,2,0.05
2014-12-21,44,38,36,41,37,35,98,94,79,30.02,29.92,2,0,4,0.00
2014-12-22,40,38,36,39,37,36,99,98,97,29.92,29.74,2,0,3,0.22
2014-12-23,51,45,38,51,44,38,100,100,99,29.80,29.58,2,0,7,1.00
2014-12-24,53,50,41,53,50,41,100,100,100,29.62,29.38,3,0,6,1.23
2014-12-25,49,39,32,40,30,25,100,71,40,30.06,29.51,3,0,11,0.00
2014-12-26,55,42,34,30,27,22,85,57,28,30.15,30.01,1,0,2,0.00
2014-12-27,60,50,40,32,20,0,65,35,11,30.09,29.93,3,0,4,0.00
2014-12-28,57,52,48,56,48,32,100,88,53,29.92,29.72,3,1,9,0.09
2014-12-29,53,49,46,50,48,46,99,95,78,29.86,29.77,1,0,3,0.26
2014-12-30,49,39,30,48,39,28,99,97,90,30.19,29.82,2,0,5,0.04
2014-12-31,40,33,26,32,28,22,94,83,60,30.24,30.11,2,0,5,0.00
2015-1-1,49,37,26,34,23,16,78,58,39,30.15,29.99,3,1,7,0.00
2015-1-2,50,46,42,46,41,33,98,83,69,30.09,29.97,3,0,6,0.29